| time (UTC) | temp F | wind direction | speed MPH | gust MPH | rain 1hr in | rain 24hr in | rain mn in | humidity % | barometer mb |
| 20260904200051 | 72 | 137 | 1.0 | 3.0 | 0.00 | 0.37 | 0.14 | 73 | 1013.5 |
| 20260904194607 | 72 | 0 | 1.0 | 3.0 | 0.00 | 0.37 | 0.14 | 73 | 1013.5 |
| 20260904193053 | 72 | 32 | 1.0 | 4.0 | 0.00 | 0.37 | 0.14 | 71 | 1013.7 |
| 20260904191551 | 72 | 119 | 1.0 | 5.0 | 0.00 | 0.37 | 0.14 | 72 | 1013.8 |
| 20260904190055 | 72 | 291 | 1.0 | 5.0 | 0.00 | 0.37 | 0.14 | 70 | 1013.8 |
| 20260904184556 | 71 | 0 | 1.0 | 4.0 | 0.00 | 0.37 | 0.14 | 74 | 1014.0 |
| 20260904183111 | 71 | 309 | 0.0 | 4.0 | 0.00 | 0.37 | 0.14 | 77 | 1014.0 |
| 20260904181602 | 72 | 67 | 0.0 | 3.0 | 0.00 | 0.37 | 0.14 | 77 | 1014.2 |
| 20260904180056 | 72 | 286 | 1.0 | 5.0 | 0.00 | 0.37 | 0.14 | 77 | 1014.2 |
| 20260904174554 | 71 | 309 | 1.0 | 4.0 | 0.00 | 0.37 | 0.14 | 76 | 1014.5 |
| 20260904173104 | 71 | 137 | 1.0 | 3.0 | 0.00 | 0.37 | 0.14 | 75 | 1014.6 |
| 20260904171556 | 71 | 137 | 1.0 | 4.0 | 0.00 | 0.37 | 0.14 | 75 | 1014.7 |
| 20260904170056 | 71 | 0 | 1.0 | 4.0 | 0.00 | 0.37 | 0.14 | 73 | 1014.5 |
| 20260904164552 | 71 | 309 | 1.0 | 5.0 | 0.00 | 0.37 | 0.14 | 76 | 1014.7 |
| 20260904163046 | 71 | 32 | 2.0 | 7.0 | 0.00 | 0.37 | 0.14 | 76 | 1014.6 |
| 20260904161554 | 70 | 9 | 1.0 | 5.0 | 0.00 | 0.37 | 0.14 | 78 | 1014.7 |
| 20260904160104 | 70 | 319 | 1.0 | 5.0 | 0.00 | 0.37 | 0.14 | 77 | 1014.6 |
| 20260904154551 | 70 | 334 | 2.0 | 5.0 | 0.00 | 0.37 | 0.14 | 80 | 1014.5 |
| 20260904153101 | 69 | 51 | 1.0 | 3.0 | 0.00 | 0.37 | 0.14 | 85 | 1014.7 |
| 20260904151554 | 68 | 265 | 1.0 | 3.0 | 0.00 | 0.37 | 0.14 | 88 | 1014.8 |
| 20260904150104 | 68 | 265 | 1.0 | 8.0 | 0.00 | 0.37 | 0.14 | 86 | 1014.8 |
| 20260904144552 | 67 | 298 | 0.0 | 6.0 | 0.00 | 0.37 | 0.14 | 89 | 1014.9 |
| 20260904143058 | 67 | 93 | 1.0 | 4.0 | 0.00 | 0.37 | 0.14 | 92 | 1014.9 |
| 20260904141557 | 66 | 265 | 1.0 | 3.0 | 0.00 | 0.37 | 0.14 | 93 | 1014.8 |
| 20260904140104 | 65 | 51 | 1.0 | 4.0 | 0.00 | 0.37 | 0.14 | 95 | 1015.0 |
| 20260904134600 | 64 | 334 | 0.0 | 3.0 | 0.00 | 0.37 | 0.14 | 96 | 1014.7 |
| 20260904133100 | 64 | 51 | 0.0 | 3.0 | 0.00 | 0.37 | 0.14 | 97 | 1014.7 |
| 20260904131552 | 63 | 59 | 1.0 | 3.0 | 0.00 | 0.37 | 0.14 | 96 | 1014.5 |
| 20260904124602 | 63 | 292 | 0.0 | 3.0 | 0.00 | 0.37 | 0.14 | 97 | 1014.8 |
| 20260904123052 | 63 | 0 | 0.0 | 2.0 | 0.00 | 0.37 | 0.14 | 97 | 1014.6 |
| 20260904121559 | 63 | 0 | 0.0 | 2.0 | 0.00 | 0.37 | 0.14 | 97 | 1014.6 |
| 20260904120106 | 63 | 0 | 0.0 | 2.0 | 0.00 | 0.37 | 0.14 | 97 | 1014.4 |
| 20260904114556 | 63 | 205 | 0.0 | 1.0 | 0.00 | 0.37 | 0.14 | 97 | 1014.5 |
| 20260904113053 | 63 | 0 | 0.0 | 1.0 | 0.00 | 0.37 | 0.14 | 97 | 1014.4 |
| 20260904111553 | 63 | 0 | 0.0 | 2.0 | 0.00 | 0.37 | 0.14 | 97 | 1014.4 |
| 20260904110059 | 64 | 0 | 0.0 | 1.0 | 0.00 | 0.37 | 0.14 | 97 | 1014.2 |
| 20260904104558 | 64 | 0 | 0.0 | 2.0 | 0.00 | 0.37 | 0.14 | 97 | 1014.2 |
| 20260904103053 | 64 | 316 | 0.0 | 2.0 | 0.00 | 0.37 | 0.14 | 97 | 1014.0 |
| 20260904101552 | 65 | 265 | 0.0 | 2.0 | 0.00 | 0.37 | 0.14 | 97 | 1013.8 |
| 20260904100057 | 65 | 0 | 0.0 | 2.0 | 0.00 | 0.37 | 0.14 | 97 | 1013.8 |
| 20260904094555 | 65 | 0 | 0.0 | 2.0 | 0.00 | 0.37 | 0.14 | 97 | 1014.0 |
| 20260904093051 | 65 | 0 | 0.0 | 2.0 | 0.00 | 0.37 | 0.14 | 97 | 1013.7 |
| 20260904091553 | 65 | 0 | 0.0 | 2.0 | 0.00 | 0.37 | 0.14 | 97 | 1013.7 |
| 20260904090056 | 65 | 0 | 0.0 | 2.0 | 0.00 | 0.37 | 0.14 | 97 | 1013.7 |
| 20260904084554 | 65 | 0 | 0.0 | 1.0 | 0.00 | 0.37 | 0.14 | 97 | 1013.6 |
| 20260904083051 | 65 | 0 | 0.0 | 2.0 | 0.00 | 0.37 | 0.14 | 96 | 1013.4 |
| 20260904081601 | 65 | 282 | 0.0 | 2.0 | 0.00 | 0.37 | 0.14 | 97 | 1013.1 |
| 20260904080054 | 65 | 0 | 0.0 | 2.0 | 0.00 | 0.37 | 0.14 | 96 | 1012.7 |
| 20260904074552 | 65 | 0 | 0.0 | 2.0 | 0.00 | 0.37 | 0.14 | 96 | 1012.8 |
| 20260904073051 | 65 | 9 | 0.0 | 2.0 | 0.00 | 0.37 | 0.14 | 96 | 1012.7 |
| 20260904071556 | 65 | 282 | 0.0 | 2.0 | 0.01 | 0.37 | 0.14 | 96 | 1012.7 |
| 20260904070055 | 65 | 34 | 0.0 | 1.0 | 0.01 | 0.37 | 0.14 | 96 | 1012.6 |
| 20260904064556 | 66 | 0 | 0.0 | 2.0 | 0.01 | 0.37 | 0.14 | 96 | 1012.6 |
| 20260904063056 | 66 | 0 | 0.0 | 2.0 | 0.01 | 0.37 | 0.14 | 96 | 1012.7 |
| 20260904061553 | 66 | 26 | 0.0 | 2.0 | 0.00 | 0.36 | 0.13 | 96 | 1012.8 |
| 20260904060053 | 67 | 9 | 0.0 | 2.0 | 0.00 | 0.36 | 0.13 | 96 | 1012.9 |
| 20260904054548 | 67 | 26 | 0.0 | 2.0 | 0.00 | 0.37 | 0.13 | 96 | 1013.0 |
| 20260904053102 | 67 | 57 | 1.0 | 2.0 | 0.02 | 0.37 | 0.13 | 96 | 1013.1 |
| 20260904051601 | 67 | 44 | 1.0 | 2.0 | 0.07 | 0.37 | 0.13 | 96 | 1013.2 |
| 20260904050052 | 68 | 0 | 0.0 | 3.0 | 0.12 | 0.37 | 0.13 | 95 | 1013.4 |
| 20260904044601 | 68 | 334 | 0.0 | 2.0 | 0.31 | 0.49 | 0.13 | 95 | 1013.5 |
| 20260904043102 | 69 | 9 | 0.0 | 2.0 | 0.34 | 0.47 | 0.11 | 95 | 1013.7 |
| 20260904041546 | 69 | 9 | 1.0 | 2.0 | 0.28 | 0.41 | 0.05 | 96 | 1014.0 |
| 20260904040052 | 69 | 0 | 0.0 | 3.0 | 0.24 | 0.37 | 0.01 | 95 | 1013.7 |
| 20260904034554 | 70 | 265 | 1.0 | 4.0 | 0.05 | 0.41 | 0.18 | 95 | 1013.6 |
| 20260904033053 | 70 | 196 | 0.0 | 1.0 | 0.00 | 0.36 | 0.13 | 93 | 1013.3 |
| 20260904031553 | 70 | 93 | 0.0 | 2.0 | 0.00 | 0.36 | 0.13 | 93 | 1013.2 |
| 20260904030107 | 70 | 0 | 0.0 | 1.0 | 0.00 | 0.36 | 0.13 | 93 | 1013.3 |
| 20260904024556 | 70 | 0 | 0.0 | 1.0 | 0.00 | 0.52 | 0.13 | 93 | 1013.4 |
| 20260904023054 | 70 | 51 | 0.0 | 1.0 | 0.00 | 0.52 | 0.13 | 93 | 1013.3 |
| 20260904021550 | 70 | 0 | 0.0 | 1.0 | 0.00 | 0.52 | 0.13 | 93 | 1013.6 |
| 20260904020058 | 70 | 0 | 0.0 | 2.0 | 0.00 | 0.52 | 0.13 | 93 | 1013.8 |
| 20260904014609 | 70 | 67 | 0.0 | 2.0 | 0.00 | 1.22 | 0.13 | 93 | 1013.7 |
| 20260904013051 | 71 | 93 | 0.0 | 2.0 | 0.00 | 1.22 | 0.13 | 92 | 1013.8 |
| 20260904011559 | 71 | 0 | 0.0 | 2.0 | 0.00 | 1.22 | 0.13 | 93 | 1014.0 |
| 20260904010053 | 71 | 51 | 1.0 | 3.0 | 0.00 | 1.22 | 0.13 | 91 | 1014.1 |
| 20260904004558 | 72 | 0 | 0.0 | 2.0 | 0.00 | 1.23 | 0.13 | 90 | 1013.9 |
| 20260904003052 | 72 | 0 | 0.0 | 2.0 | 0.00 | 1.23 | 0.13 | 90 | 1013.6 |
| 20260904001553 | 72 | 137 | 1.0 | 2.0 | 0.00 | 1.23 | 0.13 | 90 | 1013.5 |
| 20260904000057 | 73 | 178 | 0.0 | 1.0 | 0.00 | 1.23 | 0.13 | 88 | 1013.4 |
| 20260903234553 | 73 | 0 | 0.0 | 2.0 | 0.00 | 1.23 | 0.13 | 88 | 1013.3 |
| 20260903233053 | 73 | 298 | 1.0 | 2.0 | 0.00 | 1.23 | 0.13 | 87 | 1013.6 |
| 20260903231600 | 74 | 0 | 0.0 | 2.0 | 0.00 | 1.23 | 0.13 | 87 | 1013.6 |
| 20260903230054 | 74 | 316 | 1.0 | 2.0 | 0.00 | 1.23 | 0.13 | 86 | 1013.5 |
| 20260903224551 | 75 | 291 | 1.0 | 2.0 | 0.00 | 1.23 | 0.13 | 86 | 1013.4 |
| 20260903223049 | 75 | 319 | 1.0 | 2.0 | 0.00 | 1.23 | 0.13 | 85 | 1013.3 |
| 20260903221558 | 75 | 51 | 0.0 | 1.0 | 0.00 | 1.23 | 0.13 | 84 | 1013.1 |
| 20260903220117 | 76 | 0 | 0.0 | 2.0 | 0.00 | 1.23 | 0.13 | 83 | 1012.9 |
| 20260903214601 | 76 | 0 | 0.0 | 3.0 | 0.00 | 1.23 | 0.13 | 83 | 1012.9 |
| 20260903213056 | 76 | 0 | 0.0 | 3.0 | 0.00 | 1.23 | 0.13 | 84 | 1013.2 |
| 20260903211559 | 76 | 325 | 0.0 | 5.0 | 0.00 | 1.23 | 0.13 | 84 | 1013.1 |
| 20260903210114 | 77 | 0 | 0.0 | 5.0 | 0.00 | 1.23 | 0.13 | 82 | 1013.3 |
| 20260903204556 | 77 | 0 | 0.0 | 1.0 | 0.00 | 1.23 | 0.13 | 84 | 1013.3 |
| 20260903203053 | 77 | 0 | 0.0 | 3.0 | 0.00 | 1.23 | 0.13 | 82 | 1013.6 |
| 20260903201554 | 77 | 0 | 0.0 | 2.0 | 0.00 | 1.23 | 0.13 | 82 | 1013.7 |